Peachtree City, GA

4:01 PM EST on December 09, 2019 (GMT -0500)
Peachtree City-Falcon

Weather History for KFFC - June, 2019

Change the Weather History Date:

Wednesday, June 12, 2019

  Actual Average Record
Temperature  
Mean Temperature 72 °F 75 °F  
Max Temperature 75 °F 87 °F 96 °F (2016)
Min Temperature 69 °F 64 °F 55 °F (2002)
Degree Days  
Heating Degree Days 0 0  
Month to date heating degree days 0 0  
Since 1 June heating degree days 0 0  
Since 1 July heating degree days 2325 2950  
Cooling Degree Days 7 10  
Month to date cooling degree days 139 111  
Year to date cooling degree days 546 301  
Since 1 June cooling degree days 139 111  
Growing Degree Days 21 (Base 50)    
Moisture  
Dew Point 65 °F    
Average Humidity 83    
Maximum Humidity 93    
Minimum Humidity 73    
Precipitation  
Precipitation 0.00 in 0.12 in 0.92 in (2001)
Month to date precipitation 6.94 1.47  
Year to date precipitation 27.70 22.99  
Snow  
Snow 0.00 in - - ()
Month to date snowfall 0.0  
Since 1 June snowfall 0.0  
Since 1 July snowfall T  
Snow Depth 0.00 in    
Sea Level Pressure  
Sea Level Pressure 29.96 in    
Wind  
Wind Speed 6 mph (East)    
Max Wind Speed 13 mph    
Max Gust Speed 20 mph    
Visibility 10 miles    
Events      
T = Trace of Precipitation, MM = Missing Value Source: NWS Daily Summary

Daily Weather History Graph

Daily Weather History Graph

Search for Another Location

Airport or City:

Astronomy

Jun. 12, 2019 Rise Set
Actual Time 6:28 AM EDT 8:48 PM EDT
Civil Twilight 5:59 AM EDT 9:17 PM EDT
Nautical Twilight 5:24 AM EDT 9:52 PM EDT
Astronomical Twilight 4:45 AM EDT 10:30 PM EDT
Moon 4:10 PM EDT (6/12) 3:24 AM EDT (6/12)
Length of Visible Light 15h 17m
Length of Day
14h 20m
Waxing Gibbous, 76% of the Moon is Illuminated
Jun 12
Waxing Gibbous
Jun 17
Full
Jun 25
Last Quarter
Jul 2
New
Jul 9
First Quarter

Hourly Weather History & Observations

Time (EDT) Temp. Dew Point Humidity Pressure Visibility Wind Dir Wind Speed Gust Speed Precip Events Conditions
12:53 AM 73.9 °F 71.1 °F 91% 29.99 in 10.0 mi Calm Calm - N/A   Overcast
1:37 AM 73.9 °F 71.1 °F 91% 29.99 in 9.0 mi ENE 3.5 mph - N/A   Overcast
1:53 AM 73.9 °F 71.1 °F 91% 29.97 in 9.0 mi NNE 4.6 mph - N/A   Overcast
2:53 AM 72.0 °F 68.0 °F 87% 29.97 in 10.0 mi NE 4.6 mph - N/A   Overcast
3:53 AM 71.1 °F 66.9 °F 87% 29.97 in 10.0 mi NE 3.5 mph - N/A   Overcast
4:23 AM 71.1 °F 66.9 °F 87% 29.99 in 10.0 mi NE 3.5 mph - N/A   Overcast
4:37 AM 71.1 °F 66.0 °F 84% 29.98 in 10.0 mi NE 4.6 mph - N/A   Overcast
4:53 AM 70.0 °F 64.9 °F 84% 29.95 in 10.0 mi Calm Calm - N/A   Overcast
5:53 AM 69.1 °F 63.0 °F 81% 29.96 in 10.0 mi Calm Calm - N/A   Overcast
6:18 AM 69.1 °F 63.0 °F 81% 29.98 in 10.0 mi Calm Calm - N/A   Overcast
6:44 AM 69.1 °F 63.0 °F 81% 29.99 in 10.0 mi Variable 3.5 mph - N/A   Overcast
6:53 AM 69.1 °F 63.0 °F 81% 29.97 in 10.0 mi Calm Calm - N/A   Overcast
7:15 AM 69.1 °F 63.0 °F 81% 29.99 in 10.0 mi Calm Calm - N/A   Overcast
7:53 AM 69.1 °F 63.0 °F 81% 29.99 in 10.0 mi Calm Calm - N/A   Overcast
8:53 AM 70.0 °F 64.0 °F 81% 29.99 in 10.0 mi East 3.5 mph - N/A   Overcast
9:10 AM 71.1 °F 64.0 °F 78% 30.00 in 10.0 mi East 6.9 mph - N/A   Overcast
9:32 AM 72.0 °F 64.9 °F 78% 30.00 in 10.0 mi Variable 3.5 mph - N/A   Overcast
9:53 AM 73.0 °F 66.0 °F 79% 29.98 in 10.0 mi East 6.9 mph - N/A   Overcast
10:53 AM 73.0 °F 66.0 °F 79% 29.98 in 10.0 mi East 6.9 mph - N/A   Overcast
11:22 AM 73.9 °F 66.0 °F 76% 29.99 in 10.0 mi East 8.1 mph - N/A   Overcast
11:49 AM 73.4 °F 66.2 °F 78% 29.99 in 10.0 mi East 8.1 mph - N/A   Overcast
11:53 AM 73.9 °F 66.0 °F 76% 29.98 in 10.0 mi East 10.4 mph - N/A   Overcast
12:53 PM 73.0 °F 64.9 °F 76% 29.98 in 10.0 mi ESE 8.1 mph - N/A   Overcast
1:53 PM 73.9 °F 66.0 °F 76% 29.97 in 10.0 mi East 9.2 mph 18.4 mph N/A   Overcast
2:53 PM 73.0 °F 66.0 °F 79% 29.95 in 10.0 mi ESE 11.5 mph - N/A   Overcast
3:53 PM 73.9 °F 64.9 °F 73% 29.93 in 10.0 mi East 8.1 mph - N/A   Overcast
4:53 PM 73.9 °F 64.9 °F 73% 29.92 in 10.0 mi East 6.9 mph - N/A   Overcast
5:53 PM 73.9 °F 64.0 °F 71% 29.91 in 10.0 mi ESE 10.4 mph - N/A   Overcast
6:53 PM 73.0 °F 64.0 °F 73% 29.90 in 10.0 mi ESE 10.4 mph - N/A   Overcast
7:53 PM 72.0 °F 64.0 °F 76% 29.91 in 10.0 mi ESE 5.8 mph - N/A   Overcast
8:53 PM 71.1 °F 64.0 °F 78% 29.93 in 10.0 mi SE 5.8 mph - N/A   Overcast
9:53 PM 71.1 °F 64.0 °F 78% 29.94 in 10.0 mi ESE 9.2 mph - N/A   Overcast
10:26 PM 70.0 °F 64.0 °F 81% 29.95 in 10.0 mi ESE 8.1 mph - N/A   Overcast
10:53 PM 70.0 °F 64.9 °F 84% 29.94 in 10.0 mi ESE 5.8 mph - N/A   Overcast
11:53 PM 70.0 °F 64.9 °F 84% 29.94 in 10.0 mi ESE 4.6 mph - N/A   Overcast